Find Starlink 36756

NORAD ID: 67817 Int'l Des: 2026-032 Owner: SPXS Country: US Constellation: starlink operational
LEOCIRCULARRETROGRADE

当前视图

正在加载3D地球...

关于 Starlink 36756

正在加载描述...

即将过境

Passes for default location (London). Set your location on the main map for personalized predictions.

高度历史

Loading altitude history...

两行轨道根数

1 67817U 26032W 26150.45312808 .00026982 00000-0 83456-3 0 9993
2 67817 97.2841 338.5093 0003053 106.7708 253.3870 15.33462618 17480
Epoch: May 30, 2026 • Age: 8 hours

当前状态

高度 471.3 km
速度 7.64 km/s
星下点 44.95°N, 159.72°E
发射日期 Feb 15, 2026
运行时间 0.2 years
类型 internet

技术详情

分类 Payload
质量 575.00 kg
干质量 530.00 kg
总质量 575.00 kg
长度 0.30 m
直径 4.10 m
跨度 29.00 m
形状 Box + pan
制造商 SPXS
平台类型 Starlink V2MO
阶段状态 In Orbit
所有者/国家 SPXS/US

Most Searched